TimeCDT,TemperatureF,Dew PointF,Humidity,Sea Level PressureIn,VisibilityMPH,Wind Direction,Wind SpeedMPH,Gust SpeedMPH,PrecipitationIn,Events,Conditions,WindDirDegrees,DateUTC
12:53 AM,61.0,60.1,97,30.00,5.0,SE,3.5,-,N/A,,Clear,140,2013-10-03 05:53:00
1:53 AM,62.1,61.0,96,30.00,2.0,Calm,Calm,-,N/A,,Clear,0,2013-10-03 06:53:00
1:58 AM,60.8,60.8,100,30.01,1.0,Calm,Calm,-,N/A,,Mist,0,2013-10-03 06:58:00
2:12 AM,59.0,59.0,100,30.00,1.0,Calm,Calm,-,N/A,,Mostly Cloudy,0,2013-10-03 07:12:00
2:19 AM,57.2,57.2,100,30.01,2.0,Calm,Calm,-,N/A,,Mostly Cloudy,0,2013-10-03 07:19:00
2:40 AM,59.0,59.0,100,30.00,1.0,ENE,3.5,-,N/A,,Overcast,60,2013-10-03 07:40:00
2:42 AM,59.0,59.0,100,30.00,0.8,ENE,3.5,-,N/A,,Overcast,60,2013-10-03 07:42:00
2:50 AM,59.0,59.0,100,30.00,0.2,Calm,Calm,-,N/A,Fog,Fog,0,2013-10-03 07:50:00
2:53 AM,59.0,59.0,100,29.99,0.2,ENE,3.5,-,N/A,Fog,Fog,60,2013-10-03 07:53:00
3:01 AM,57.2,57.2,100,30.00,0.2,East,3.5,-,N/A,Fog,Fog,80,2013-10-03 08:01:00
3:20 AM,62.6,62.6,100,30.00,1.2,SE,5.8,-,N/A,,Overcast,130,2013-10-03 08:20:00
3:28 AM,62.6,62.6,100,30.00,2.5,SE,5.8,-,N/A,,Overcast,140,2013-10-03 08:28:00
3:43 AM,64.4,64.4,100,30.00,3.0,SE,4.6,-,N/A,,Overcast,140,2013-10-03 08:43:00
3:53 AM,64.0,64.0,100,29.99,3.0,SSE,5.8,-,N/A,,Overcast,160,2013-10-03 08:53:00
4:04 AM,64.4,64.4,100,30.00,4.0,SSE,5.8,-,N/A,,Overcast,150,2013-10-03 09:04:00
4:53 AM,64.9,64.9,100,29.99,3.0,SE,4.6,-,N/A,,Overcast,140,2013-10-03 09:53:00
5:01 AM,64.4,64.4,100,30.00,2.5,South,5.8,-,N/A,,Overcast,170,2013-10-03 10:01:00
5:24 AM,64.4,64.4,100,29.99,3.0,South,5.8,-,N/A,,Overcast,170,2013-10-03 10:24:00
5:53 AM,64.9,64.9,100,29.98,3.0,South,5.8,-,N/A,,Overcast,180,2013-10-03 10:53:00
6:53 AM,66.0,66.0,100,29.99,3.0,South,4.6,-,N/A,,Overcast,190,2013-10-03 11:53:00
7:12 AM,66.2,66.2,100,30.00,2.5,South,6.9,-,N/A,,Overcast,190,2013-10-03 12:12:00
7:26 AM,66.2,66.2,100,30.00,3.0,SSW,5.8,-,N/A,,Overcast,200,2013-10-03 12:26:00
7:49 AM,66.2,66.2,100,30.00,2.5,South,6.9,-,N/A,,Overcast,180,2013-10-03 12:49:00
7:53 AM,66.0,66.0,100,29.99,2.5,South,5.8,-,N/A,,Overcast,190,2013-10-03 12:53:00
8:01 AM,66.2,66.2,100,30.00,3.0,South,8.1,-,N/A,,Overcast,190,2013-10-03 13:01:00
8:08 AM,66.2,66.2,100,29.99,2.5,South,6.9,-,N/A,,Overcast,190,2013-10-03 13:08:00
8:30 AM,66.2,66.2,100,29.99,3.0,South,6.9,-,N/A,,Overcast,170,2013-10-03 13:30:00
8:53 AM,66.9,66.0,97,29.99,4.0,South,5.8,-,N/A,,Overcast,180,2013-10-03 13:53:00
9:29 AM,66.2,66.2,100,30.00,4.0,South,6.9,-,N/A,,Overcast,190,2013-10-03 14:29:00
9:45 AM,66.2,66.2,100,30.00,1.8,South,8.1,-,0.04,Rain,Heavy Rain,190,2013-10-03 14:45:00
9:53 AM,66.9,66.9,100,30.00,1.0,SSW,8.1,-,0.11,Rain,Heavy Rain,210,2013-10-03 14:53:00
9:57 AM,66.2,66.2,100,30.00,2.0,SSW,6.9,-,0.01,Rain,Rain,210,2013-10-03 14:57:00
10:00 AM,66.2,66.2,100,30.00,3.0,SSW,6.9,-,0.02,Rain,Light Rain,210,2013-10-03 15:00:00
10:09 AM,66.2,66.2,100,30.00,4.0,SSW,8.1,-,0.03,Rain,Light Rain,200,2013-10-03 15:09:00
10:20 AM,68.0,66.2,94,29.99,5.0,South,10.4,-,0.03,Rain,Light Rain,190,2013-10-03 15:20:00
10:36 AM,66.2,66.2,100,29.99,2.5,SSW,8.1,-,0.05,Rain,Rain,200,2013-10-03 15:36:00
10:48 AM,66.2,66.2,100,30.00,2.0,SSW,9.2,-,0.08,Rain,Rain,210,2013-10-03 15:48:00
10:53 AM,66.9,66.9,100,29.99,3.0,SSW,9.2,-,0.09,Rain,Light Rain,210,2013-10-03 15:53:00
11:14 AM,66.2,66.2,100,30.01,1.8,SW,15.0,-,0.10,Rain,Light Rain,220,2013-10-03 16:14:00
11:25 AM,66.2,66.2,100,30.01,2.0,SW,10.4,-,0.17,Rain,Light Rain,220,2013-10-03 16:25:00
11:33 AM,66.2,66.2,100,30.01,6.0,SW,9.2,-,0.18,Rain,Light Rain,220,2013-10-03 16:33:00
11:53 AM,66.9,66.9,100,29.99,6.0,SSW,5.8,-,0.19,Rain,Light Rain,210,2013-10-03 16:53:00
12:53 PM,68.0,66.9,96,29.98,10.0,SSW,6.9,-,0.03,Rain,Light Rain,200,2013-10-03 17:53:00
1:25 PM,69.8,68.0,94,29.96,10.0,South,8.1,-,0.00,,Overcast,190,2013-10-03 18:25:00
1:53 PM,71.1,66.9,87,29.95,10.0,SSW,11.5,-,0.00,,Overcast,210,2013-10-03 18:53:00
2:08 PM,71.6,68.0,88,29.96,10.0,South,11.5,-,N/A,,Overcast,180,2013-10-03 19:08:00
2:53 PM,73.9,66.9,79,29.94,10.0,South,8.1,18.4,N/A,,Overcast,190,2013-10-03 19:53:00
3:53 PM,75.0,66.9,76,29.91,10.0,SSW,9.2,-,N/A,,Scattered Clouds,200,2013-10-03 20:53:00
4:53 PM,75.0,66.9,76,29.88,10.0,SSE,6.9,-,N/A,,Partly Cloudy,150,2013-10-03 21:53:00
5:53 PM,73.9,66.9,79,29.91,10.0,South,4.6,-,N/A,,Mostly Cloudy,180,2013-10-03 22:53:00
6:01 PM,69.8,64.4,83,29.93,1.5,SW,15.0,31.1,0.11,Rain,Heavy Rain,230,2013-10-03 23:01:00
6:11 PM,66.2,66.2,100,29.93,3.0,WSW,6.9,20.7,0.18,Rain,Light Rain,240,2013-10-03 23:11:00
6:53 PM,66.9,66.0,97,29.91,10.0,SSE,4.6,-,0.18,,Scattered Clouds,150,2013-10-03 23:53:00
7:53 PM,66.9,66.0,97,29.94,10.0,SSE,5.8,-,N/A,,Scattered Clouds,160,2013-10-04 00:53:00
8:53 PM,64.9,63.0,93,29.94,10.0,SSE,6.9,-,N/A,,Clear,160,2013-10-04 01:53:00
9:53 PM,64.0,62.1,93,29.95,10.0,SE,3.5,-,N/A,,Mostly Cloudy,140,2013-10-04 02:53:00
11:53 PM,64.9,64.0,97,29.94,10.0,WSW,5.8,-,0.00,Rain,Light Rain,250,2013-10-04 04:53:00